Location: ???????
(52.3000°N, 54.4667°E)
Time: 00:17:04
(UTC+00:00)

Cosmos 2251 Rocket - Pass Details

Date: 24 January 2020
Orbit: 764 x 792 km, 74.0° (Epoch: 23 February)

Event Time Altitude Azimuth Distance (km) Brightness Sun altitude
Rises 14:19:49 0° 335° (NNW) 3,261 6.9 -13.0°
Reaches altitude 10° 14:22:14 10° 339° (NNW) 2,334 6.1 -13.3°
Maximum altitude 14:27:31 65° 61° (ENE) 858 3.5 -14.1°
Drops below altitude 10° 14:32:47 10° 144° (SE) 2,337 5.8 -14.9°
Sets 14:35:12 0° 147° (SSE) 3,265 6.5 -15.3°
